Crane Lake, MN

10:41 AM CDT on August 18, 2017 (GMT -0500)
Crane Lake

Weather History for KCDD - November, 2012

Change the Weather History Date:

Saturday, November 17, 2012

  Actual Average Record
Temperature  
Mean Temperature 38 °F -  
Max Temperature 44 °F 31 °F 66 °F (2001)
Min Temperature 32 °F 18 °F 5 °F (2005)
Degree Days  
Heating Degree Days 27    
Moisture  
Dew Point 30 °F    
Average Humidity 76    
Maximum Humidity 87    
Minimum Humidity 65    
Precipitation  
Precipitation 0.00 in - - ()
Sea Level Pressure  
Sea Level Pressure 30.18 in    
Wind  
Wind Speed 4 mph (SSE)    
Max Wind Speed 8 mph    
Max Gust Speed -    
Visibility 10 miles    
Events Rain    
Averages and records for this station are not official NWS values.
T = Trace of Precipitation, MM = Missing Value Source: NWS Daily Summary

Daily Weather History Graph

Daily Weather History Graph

Search for Another Location

Airport or City:

Trip Planner

Search our weather history database for the weather conditions in past years. The results will help you decide how hot, cold, wet, or windy it might be!

Date:

Astronomy

Nov. 17, 2012 Rise Set
Actual Time 7:20 AM CST 4:28 PM CST
Civil Twilight 6:46 AM CST 5:02 PM CST
Nautical Twilight 6:08 AM CST 5:41 PM CST
Astronomical Twilight 5:31 AM CST 6:17 PM CST
Moon 11:06 AM CST (11/17) 8:40 PM CST (11/17)
Length of Visible Light 10h 16m
Length of Day
9h 07m
Waxing Crescent, 20% of the Moon is Illuminated
Nov 17
Waxing Crescent
Nov 20
First Quarter
Nov 28
Full
Dec 6
Last Quarter
Dec 13
New

Hourly Weather History & Observations

Time (CST) Temp. Windchill Dew Point Humidity Pressure Visibility Wind Dir Wind Speed Gust Speed Precip Events Conditions
12:06 AM 32.0 °F 27.5 °F 23.0 °F 69% 30.27 in 10.0 mi SSE 4.6 mph - N/A   Overcast
12:26 AM 32.0 °F 26.4 °F 23.0 °F 69% 30.26 in 10.0 mi SSE 5.8 mph - N/A   Overcast
12:46 AM 32.0 °F 26.4 °F 24.8 °F 75% 30.26 in 10.0 mi South 5.8 mph - N/A   Overcast
1:06 AM 33.8 °F 27.7 °F 24.8 °F 70% 30.25 in 10.0 mi South 6.9 mph - N/A   Overcast
1:26 AM 32.0 °F 25.6 °F 23.0 °F 69% 30.24 in 10.0 mi SSE 6.9 mph - N/A   Scattered Clouds
1:46 AM 32.0 °F 26.4 °F 24.8 °F 75% 30.23 in 10.0 mi SSE 5.8 mph - N/A   Clear
2:06 AM 32.0 °F 27.5 °F 24.8 °F 75% 30.23 in 10.0 mi SE 4.6 mph - N/A   Clear
2:26 AM 32.0 °F 26.4 °F 24.8 °F 75% 30.22 in 10.0 mi SSE 5.8 mph - N/A   Clear
2:46 AM 33.8 °F 27.7 °F 24.8 °F 70% 30.22 in 10.0 mi South 6.9 mph - N/A   Clear
3:06 AM 33.8 °F 27.7 °F 24.8 °F 70% 30.20 in 10.0 mi South 6.9 mph - N/A   Clear
3:46 AM 33.8 °F 27.7 °F 24.8 °F 70% 30.19 in 10.0 mi South 6.9 mph - N/A   Clear
4:06 AM 33.8 °F 29.6 °F 26.6 °F 75% 30.19 in 10.0 mi South 4.6 mph - N/A   Clear
4:26 AM 33.8 °F 27.7 °F 26.6 °F 75% 30.18 in 10.0 mi SSE 6.9 mph - N/A   Clear
4:46 AM 32.0 °F 26.4 °F 26.6 °F 80% 30.18 in 10.0 mi South 5.8 mph - N/A   Clear
5:06 AM 32.0 °F 27.5 °F 26.6 °F 80% 30.18 in 10.0 mi South 4.6 mph - N/A   Clear
5:26 AM 32.0 °F 27.5 °F 26.6 °F 80% 30.18 in 10.0 mi South 4.6 mph - N/A   Clear
5:46 AM 32.0 °F 28.7 °F 26.6 °F 80% 30.18 in 10.0 mi South 3.5 mph - N/A   Clear
6:06 AM 32.0 °F 28.7 °F 26.6 °F 80% 30.18 in 10.0 mi SSE 3.5 mph - N/A   Clear
6:26 AM 32.0 °F 28.7 °F 26.6 °F 80% 30.17 in 10.0 mi SSE 3.5 mph - N/A   Clear
6:46 AM 33.8 °F - 28.4 °F 81% 30.18 in 10.0 mi Calm Calm - N/A   Clear
7:06 AM 33.8 °F - 28.4 °F 81% 30.18 in 10.0 mi Calm Calm - N/A   Clear
7:26 AM 33.8 °F 29.6 °F 28.4 °F 81% 30.18 in 10.0 mi South 4.6 mph - N/A   Clear
7:47 AM 33.8 °F 29.6 °F 28.4 °F 81% 30.18 in 10.0 mi SSE 4.6 mph - N/A   Clear
8:06 AM 33.8 °F 30.8 °F 28.4 °F 81% 30.18 in 10.0 mi SSE 3.5 mph - N/A   Clear
8:26 AM 33.8 °F 28.6 °F 28.4 °F 81% 30.17 in 10.0 mi SSE 5.8 mph - N/A   Clear
8:46 AM 33.8 °F 27.7 °F 28.4 °F 81% 30.17 in 10.0 mi South 6.9 mph - N/A   Clear
9:06 AM 35.6 °F 30.7 °F 30.2 °F 81% 30.18 in 10.0 mi SSE 5.8 mph - N/A   Clear
9:26 AM 35.6 °F 30.7 °F 30.2 °F 81% 30.18 in 10.0 mi South 5.8 mph - N/A   Clear
9:46 AM 37.4 °F 33.8 °F 30.2 °F 75% 30.18 in 10.0 mi SSE 4.6 mph - N/A   Clear
10:06 AM 37.4 °F 33.8 °F 30.2 °F 75% 30.18 in 10.0 mi South 4.6 mph - N/A   Clear
10:26 AM 39.2 °F 35.9 °F 32.0 °F 75% 30.18 in 10.0 mi South 4.6 mph - N/A   Clear
10:46 AM 41.0 °F 37.1 °F 32.0 °F 70% 30.18 in 10.0 mi South 5.8 mph - N/A   Clear
11:06 AM 41.0 °F 37.1 °F 32.0 °F 70% 30.18 in 10.0 mi South 5.8 mph - N/A   Clear
11:26 AM 42.8 °F 40.1 °F 33.8 °F 70% 30.18 in 10.0 mi South 4.6 mph - N/A   Clear
11:46 AM 42.8 °F 38.6 °F 33.8 °F 70% 30.17 in 10.0 mi South 6.9 mph - N/A   Clear
12:06 PM 44.6 °F 40.7 °F 33.8 °F 66% 30.17 in 10.0 mi South 6.9 mph - N/A   Clear
12:26 PM 44.6 °F 40.2 °F 33.8 °F 66% 30.17 in 10.0 mi South 8.1 mph - N/A   Clear
12:46 PM 44.6 °F 42.2 °F 33.8 °F 66% 30.16 in 10.0 mi South 4.6 mph - N/A   Clear
1:06 PM 44.6 °F - 33.8 °F 66% 30.16 in 10.0 mi Calm Calm - N/A   Clear
1:26 PM 44.6 °F 42.2 °F 33.8 °F 66% 30.16 in 10.0 mi South 4.6 mph - N/A   Clear
1:46 PM 44.6 °F 42.2 °F 33.8 °F 66% 30.15 in 10.0 mi South 4.6 mph - N/A   Clear
2:06 PM 44.6 °F - 33.8 °F 66% 30.15 in 10.0 mi Calm Calm - N/A   Clear
2:26 PM 44.6 °F - 33.8 °F 66% 30.15 in 10.0 mi Calm Calm - N/A   Clear
2:46 PM 44.6 °F - 35.6 °F 71% 30.15 in 10.0 mi Calm Calm - N/A   Clear
3:06 PM 44.6 °F - 33.8 °F 66% 30.15 in 10.0 mi Calm Calm - N/A   Scattered Clouds
3:26 PM 44.6 °F - 33.8 °F 66% 30.15 in 10.0 mi Calm Calm - N/A   Scattered Clouds
3:46 PM 42.8 °F - 33.8 °F 70% 30.15 in 10.0 mi Calm Calm - N/A   Scattered Clouds
4:06 PM 41.0 °F - 30.2 °F 65% 30.15 in 10.0 mi Calm Calm - N/A   Scattered Clouds
4:26 PM 39.2 °F - 30.2 °F 70% 30.15 in 10.0 mi Calm Calm - N/A   Scattered Clouds
4:46 PM 37.4 °F - 28.4 °F 70% 30.15 in 10.0 mi Calm Calm - N/A   Scattered Clouds
5:06 PM 35.6 °F - 28.4 °F 75% 30.15 in 10.0 mi Calm Calm - N/A   Clear
5:26 PM 35.6 °F - 28.4 °F 75% 30.15 in 10.0 mi Calm Calm - N/A   Clear
5:46 PM 33.8 °F - 28.4 °F 81% 30.15 in 10.0 mi Calm Calm - N/A   Clear
6:06 PM 33.8 °F - 26.6 °F 75% 30.15 in 10.0 mi Calm Calm - N/A   Clear
6:26 PM 32.0 °F - 26.6 °F 80% 30.16 in 10.0 mi Calm Calm - N/A   Clear
6:46 PM 32.0 °F - 26.6 °F 80% 30.16 in 10.0 mi Calm Calm - N/A   Clear
7:06 PM 32.0 °F - 26.6 °F 80% 30.16 in 10.0 mi Calm Calm - N/A   Mostly Cloudy
7:26 PM 32.0 °F - 28.4 °F 87% 30.16 in 10.0 mi Calm Calm - N/A   Mostly Cloudy
7:46 PM 33.8 °F - 28.4 °F 81% 30.17 in 10.0 mi Calm Calm - N/A   Mostly Cloudy
8:06 PM 33.8 °F - 28.4 °F 81% 30.17 in 10.0 mi Calm Calm - N/A   Overcast
8:26 PM 33.8 °F - 28.4 °F 81% 30.17 in 10.0 mi Calm Calm - N/A   Light Drizzle
8:46 PM 33.8 °F - 30.2 °F 87% 30.17 in 10.0 mi Calm Calm - N/A   Overcast
9:06 PM 39.2 °F 35.9 °F 35.6 °F 87% 30.17 in 10.0 mi South 4.6 mph - N/A Rain Rain
9:26 PM 41.0 °F 39.0 °F 37.4 °F 87% 30.17 in 10.0 mi SSE 3.5 mph - N/A   Overcast
9:46 PM 41.0 °F 39.0 °F 37.4 °F 87% 30.17 in 10.0 mi South 3.5 mph - N/A   Mostly Cloudy
10:06 PM 41.0 °F - 35.6 °F 81% 30.16 in 10.0 mi Calm Calm - N/A   Scattered Clouds
10:26 PM 41.0 °F 39.0 °F 35.6 °F 81% 30.16 in 10.0 mi South 3.5 mph - N/A   Scattered Clouds
10:46 PM 41.0 °F 38.0 °F 35.6 °F 81% 30.16 in 10.0 mi SSE 4.6 mph - N/A   Clear
11:06 PM 42.8 °F 40.1 °F 37.4 °F 81% 30.16 in 10.0 mi SSE 4.6 mph - N/A   Mostly Cloudy
11:26 PM 42.8 °F 39.3 °F 37.4 °F 81% 30.16 in 10.0 mi SSE 5.8 mph - N/A   Overcast
11:46 PM 44.6 °F 40.7 °F 37.4 °F 76% 30.16 in 10.0 mi SSE 6.9 mph - N/A   Scattered Clouds